Probability
0 0 0 0 0 0 0 0 0 0 0 0 0 0 0 0 0 0 0 0 0 0 0 1 2 4 3 2 0 0 0 0 0 0 0 0 0 0 0 0 0 0 0 0 0 0 0 0 0
0 0 0 0 0 0 0 0 0 0 0 0 0 0 0 0 0 0 0 0 0 0 0 1 2 4 4 3 1 0 0 0 0 0 0 0 0 0 0 0 0 0 0 0 0 0 0 0 0
0 0 0 0 0 0 0 0 0 0 0 0 0 0 0 0 0 0 0 0 0 1 1 1 1 3 5 4 1 0 0 0 0 0 0 0 0 0 0 0 0 0 0 0 0 0 0 0 0
0 0 0 0 0 0 0 0 0 0 0 0 0 0 0 0 0 0 0 0 0 1 1 1 1 3 5 4 1 0 0 0 0 0 0 0 0 0 0 0 0 0 0 0 0 0 0 0 0
0 0 0 0 0 0 0 0 0 0 0 0 0 0 0 0 1 0 0 0 0 1 1 0 0 2 3 3 2 0 0 0 0 0 0 0 0 0 0 0 0 0 0 0 0 0 0 0 0
0 0 0 0 0 0 0 0 0 0 0 0 0 0 0 1 1 0 0 0 1 2 2 1 0 1 2 2 1 0 0 0 0 0 0 0 0 0 0 0 0 0 0 0 0 0 0 0 0
0 0 0 0 0 0 0 0 0 0 0 0 0 0 1 1 1 1 1 1 2 3 2 1 1 1 1 1 0 0 0 0 0 0 0 0 0 0 0 0 0 0 0 0 0 0 0 0 0
0 0 0 0 0 0 0 0 0 0 0 0 0 0 1 1 1 1 1 1 2 2 1 0 1 2 2 1 0 0 0 0 0 0 0 0 0 0 0 0 0 0 0 0 0 0 0 0 0
0 0 0 0 0 0 0 0 0 0 0 0 0 0 0 0 0 0 0 0 1 1 1 1 0 1 1 1 0 0 0 0 0 0 0 0 0 0 0 0 0 0 0 0 0 0 0 0 0
0 0 0 0 0 0 0 0 0 0 0 0 0 0 0 0 0 0 0 0 0 1 2 1 0 0 0 0 1 1 0 0 0 0 0 0 0 0 0 0 0 0 0 0 0 0 0 0 0
0 0 0 0 0 0 0 0 0 0 0 0 0 0 0 0 0 0 0 0 1 2 2 1 0 0 0 1 2 2 1 1 0 0 0 0 0 0 0 0 0 0 0 0 0 0 0 0 0
0 0 0 0 0 0 0 0 0 0 0 0 0 0 0 0 0 0 0 0 1 1 1 1 0 0 0 2 3 3 3 2 1 0 0 0 0 0 0 0 0 0 0 0 0 0 0 0 0
0 0 0 0 0 0 0 0 0 0 0 0 0 0 0 0 0 0 0 1 1 1 1 1 0 0 0 1 2 3 2 2 1 0 0 0 0 0 0 0 0 0 0 0 0 0 0 0 0
0 0 0 0 0 0 0 0 0 0 0 0 0 0 0 0 0 0 0 1 1 1 2 2 1 0 0 1 2 2 1 1 0 0 0 0 0 0 0 0 0 0 0 0 0 0 0 0 0
0 0 0 0 0 0 0 0 0 0 0 0 0 0 0 0 0 0 0 0 0 1 2 2 1 0 0 0 1 1 1 0 0 0 0 0 0 0 0 0 0 0 0 0 0 0 0 0 0
0 0 0 0 0 0 0 0 0 0 0 0 0 0 0 0 0 0 0 0 0 0 1 2 1 0 0 0 1 1 1 0 0 0 0 0 0 0 0 0 0 0 0 0 0 0 0 0 0
0 0 0 0 0 0 0 0 0 0 0 0 0 0 0 0 0 0 0 0 0 0 1 1 1 0 0 0 0 0 0 0 0 0 0 0 0 0 0 0 0 0 0 0 0 0 0 0 0
0 0 0 0 0 0 0 0 0 0 0 0 0 0 0 0 0 0 0 0 0 0 0 0 0 0 0 0 0 0 0 0 0 0 0 0 0 0 0 0 0 0 0 0 0 0 0 0 0
0 0 0 0 0 0 0 0 0 0 0 0 0 0 0 0 0 0 0 0 0 0 0 0 0 0 0 0 0 0 0 0 0 0 0 0 0 0 0 0 0 0 0 0 0 0 0 0 0
0 0 0 0 0 0 0 0 0 0 0 0 0 0 0 0 0 0 0 0 0 0 0 0 0 0 0 0 0 0 0 0 0 0 0 0 0 0 0 0 0 0 0 0 0 0 0 0 0
0 0 0 0 0 0 0 0 0 0 0 0 0 0 0 0 0 0 0 0 0 0 0 0 0 0 0 0 0 0 0 0 0 0 0 0 0 0 0 0 0 0 0 0 0 0 0 0 0
0 0 0 0 0 0 0 0 0 0 0 0 0 0 0 0 0 0 0 0 0 0 0 0 0 0 0 0 0 0 0 0 1 1 0 0 0 0 0 0 0 0 0 0 0 0 0 0 0
0 0 0 0 0 0 0 0 0 0 0 0 0 0 0 0 0 0 0 0 0 0 0 0 0 0 0 0 0 0 0 1 2 2 1 1 0 0 0 0 0 0 0 0 0 0 0 0 0
0 0 0 0 0 0 0 0 0 0 0 0 0 0 0 0 0 0 0 0 0 0 0 0 0 0 0 0 0 0 0 1 2 3 3 2 1 0 0 0 0 0 0 0 0 0 0 0 0
0 0 0 0 0 0 0 0 0 0 0 0 0 0 0 0 0 0 0 0 0 0 0 0 0 0 0 0 0 0 0 1 2 3 3 3 1 0 0 0 0 0 0 0 0 0 0 0 0
0 0 0 0 0 0 0 0 0 0 0 0 0 0 0 0 0 0 0 0 0 0 0 0 0 0 0 0 0 0 0 1 2 3 3 3 2 1 0 0 0 0 0 0 0 0 0 0 0
0 0 0 0 0 0 0 0 0 0 0 0 0 0 0 0 0 0 0 0 0 0 0 0 0 0 0 0 0 0 0 0 1 2 3 3 3 2 1 0 0 0 0 0 0 0 0 0 0
0 0 0 0 0 0 0 0 0 0 0 0 0 0 0 0 0 0 0 0 0 0 0 0 0 0 0 0 0 0 0 0 0 1 2 3 3 2 1 0 0 0 0 0 0 0 0 0 0
0 0 0 0 0 0 0 0 0 0 0 0 0 0 0 0 0 0 0 0 0 0 0 0 0 0 0 0 0 0 0 0 0 0 1 2 3 2 1 0 0 0 0 0 0 0 0 0 0
0 0 0 0 0 0 0 0 0 0 0 0 0 0 0 0 0 0 0 0 0 0 0 0 0 0 0 0 0 0 0 0 0 0 0 1 3 2 1 0 0 0 0 0 0 0 0 0 0
Wind_Speed
11 5 3 3 3 2 3 2 1 3 3 3 3 3 3 3 3 4 4 2 3 3 3 4 6 8 9 10 10 10 11 11 11 11 11 10 10 10 9 10 10 10 10 10 10 10 9 9 9
8 4 2 2 4 5 4 3 3 2 3 4 4 3 3 4 4 4 3 3 3 4 3 4 7 8 9 10 10 10 10 10 11 11 11 11 10 10 9 9 9 9 10 10 10 10 9 8 8
4 2 1 1 3 5 4 4 4 4 4 2 3 3 3 3 3 3 3 2 3 4 4 5 7 8 9 10 10 10 10 10 11 11 11 11 11 11 10 9 9 9 9 10 9 9 9 9 8
2 1 1 2 4 2 1 3 4 6 3 3 3 5 4 5 3 3 3 3 5 5 4 6 8 9 9 9 10 10 10 10 10 10 10 10 11 11 10 10 9 9 9 9 9 9 9 9 8
1 1 3 3 4 2 1 1 4 4 3 2 3 4 4 3 3 4 4 4 5 5 4 5 7 8 9 9 9 9 10 10 10 10 10 10 10 10 10 10 10 10 9 8 8 8 8 8 8
1 2 5 7 6 4 2 1 4 3 3 2 2 4 4 3 3 4 4 4 4 5 4 5 7 8 9 9 10 10 10 10 10 10 10 10 10 10 10 10 9 9 9 9 8 8 8 8 9
1 2 4 6 6 5 3 2 3 4 3 1 0 3 3 3 3 3 4 4 4 5 5 4 5 6 8 9 9 10 10 10 10 10 10 10 10 10 10 10 10 9 9 9 9 9 9 9 9
1 2 4 6 7 5 3 3 1 1 3 2 0 2 3 2 3 4 4 4 5 5 5 4 4 4 4 5 8 9 9 9 10 10 9 9 9 9 9 9 10 9 9 9 8 8 8 8 8
1 2 4 4 5 4 4 3 2 2 4 3 2 2 2 4 5 5 4 4 4 4 4 4 4 3 3 3 5 6 7 8 7 7 8 5 4 5 5 8 9 9 9 8 8 7 7 7 6
1 2 1 1 1 3 3 2 3 3 3 3 3 3 5 6 5 5 4 3 3 3 3 3 3 3 3 3 2 2 3 3 3 4 4 3 4 4 4 6 8 8 8 7 8 7 5 4 3
3 2 2 3 3 2 2 1 1 4 3 3 4 5 6 6 5 5 4 3 3 2 3 3 3 2 2 2 2 2 1 2 2 4 4 3 3 2 3 2 3 4 4 4 4 4 3 4 3
5 4 2 3 3 2 1 2 1 2 1 0 2 5 7 6 6 5 4 3 3 2 2 2 3 3 2 2 2 2 2 2 2 3 3 2 2 2 2 2 2 2 2 3 3 3 4 4 3
5 4 5 5 5 3 2 1 1 2 1 2 4 6 7 6 5 4 4 3 3 2 2 2 2 3 2 2 2 2 2 2 2 2 2 2 2 2 2 2 2 3 2 2 3 3 3 3 3
5 6 4 3 3 2 1 1 2 2 2 4 5 6 6 5 5 4 4 3 3 2 1 1 2 2 2 2 2 1 1 1 1 2 2 2 2 2 2 2 2 2 3 3 2 3 3 3 3
5 5 3 3 1 0 1 2 4 3 4 5 5 5 5 5 4 4 4 3 3 2 2 1 1 2 2 2 1 1 1 1 1 2 2 3 2 2 2 2 2 2 2 2 2 3 2 2 2
2 1 1 2 2 2 3 5 3 3 5 6 6 5 5 4 4 3 3 2 2 2 2 1 1 1 1 2 1 1 1 2 1 2 2 3 3 3 2 2 2 2 2 2 2 2 3 2 2
2 1 2 2 2 2 3 5 3 4 6 6 6 6 5 4 4 3 2 2 2 2 1 1 1 1 1 1 1 1 1 2 2 2 2 2 2 2 2 2 2 2 2 2 2 2 2 2 3
2 1 2 3 2 3 4 7 6 5 6 7 7 6 5 5 5 4 3 2 2 2 1 1 1 1 1 1 1 1 1 1 2 2 3 3 3 3 2 1 2 2 1 1 2 2 2 2 3
3 2 2 3 4 4 6 8 8 6 6 8 7 7 6 6 4 3 3 3 2 2 2 1 1 0 1 0 0 0 1 1 1 2 3 3 3 3 2 2 2 2 1 2 2 2 2 2 2
3 2 2 3 3 4 6 9 8 6 7 7 7 8 7 6 4 4 3 3 3 3 2 2 2 1 1 0 1 1 2 1 1 1 2 3 3 3 2 2 2 2 2 2 2 2 2 2 2
1 1 2 3 6 3 6 6 4 4 4 5 6 7 6 6 6 5 4 4 4 3 3 3 3 2 1 1 0 0 1 1 0 1 2 2 3 3 3 3 2 2 2 2 2 2 3 2 2
1 1 2 3 4 2 4 4 3 2 4 5 5 6 6 5 5 5 4 4 4 4 3 3 2 2 1 1 1 1 1 1 1 2 2 3 3 2 3 3 3 3 2 3 3 3 3 3 3
1 2 3 3 3 3 2 4 3 1 4 5 5 5 4 4 4 4 4 4 4 3 3 2 2 2 2 2 2 2 2 2 1 1 2 2 2 2 3 3 3 3 2 3 3 3 3 3 3
1 1 2 2 2 3 2 3 4 2 3 3 2 2 2 3 3 3 3 3 3 2 2 2 2 2 2 2 2 2 2 3 2 2 2 2 2 2 3 3 3 3 3 3 3 3 3 3 4
1 2 1 1 1 2 1 4 5 3 3 3 3 2 2 2 2 2 3 3 3 2 3 2 2 2 2 2 2 2 2 3 3 2 2 2 2 2 3 3 3 3 3 3 3 3 3 4 4
2 2 1 2 2 3 1 5 4 3 3 3 3 3 3 2 2 3 3 4 4 4 3 2 2 2 2 2 2 2 2 2 2 2 2 3 2 2 3 3 3 3 4 3 3 3 3 3 4
0 1 2 0 1 3 3 5 6 2 3 3 3 2 3 2 3 3 4 4 4 4 3 3 3 2 2 2 2 2 2 3 2 2 3 2 2 2 3 3 3 3 3 3 3 2 3 3 3
1 1 1 1 2 3 4 4 4 2 2 2 2 3 3 3 3 3 3 3 3 3 3 3 3 3 3 3 3 2 2 3 3 2 2 2 3 2 3 3 3 3 3 3 3 3 3 3 3
1 1 0 1 2 3 4 4 1 4 3 3 3 4 4 4 4 3 3 2 2 2 3 2 2 3 3 3 2 2 2 3 3 2 3 3 3 2 3 3 3 3 3 3 3 3 3 3 3
2 2 3 2 2 3 4 6 1 4 4 3 5 4 4 4 4 3 2 2 2 2 3 3 3 3 3 2 2 2 2 2 2 2 2 2 3 2 2 2 2 3 3 3 3 3 3 3 3
Wind_Direction
326 321 262 232 213 191 190 158 144 127 111 75 76 87 83 52 27 69 60 63 73 95 90 82 64 77 75 75 75 74 73 72 72 73 74 74 71 70 71 69 66 66 66 67 68 67 66 64 63
325 309 244 236 228 206 185 168 158 114 92 109 84 72 82 69 42 68 61 50 89 95 90 80 63 74 76 75 75 74 73 72 71 70 69 68 66 65 64 66 64 65 66 65 64 63 63 62 61
316 312 293 209 218 220 178 154 145 106 89 109 99 55 47 55 63 63 40 72 99 95 87 73 59 72 75 74 74 74 72 71 70 69 67 64 61 59 57 61 62 64 64 63 62 61 58 56 56
295 183 161 215 190 219 215 146 146 139 112 66 112 98 82 46 33 45 76 97 94 91 86 77 60 70 72 73 73 73 72 70 69 66 64 62 61 58 56 57 58 60 60 60 60 58 57 52 50
262 206 188 198 206 185 148 141 163 159 142 100 118 111 101 54 48 81 92 95 94 88 87 86 63 66 68 70 71 69 68 68 67 65 61 58 58 56 53 53 54 54 54 55 55 52 50 47 45
170 201 212 208 198 182 169 141 165 143 135 120 124 126 102 65 77 88 91 92 93 89 85 90 65 61 62 63 64 65 64 65 64 61 58 54 53 53 50 50 51 49 48 47 47 45 43 44 41
195 191 220 206 197 199 179 158 161 153 148 137 187 139 123 98 84 96 95 96 96 91 85 88 89 78 65 60 59 60 60 60 59 57 54 50 47 46 44 45 44 44 45 43 42 41 41 40 38
14 161 187 202 200 204 156 145 89 141 129 94 152 156 147 140 115 111 100 94 88 83 75 72 80 85 90 82 61 59 59 57 57 54 50 48 48 45 40 42 39 39 40 41 40 40 40 36 34
287 198 205 211 202 177 158 158 93 50 116 110 82 48 85 122 126 122 107 93 85 76 73 64 69 71 75 81 70 68 62 56 57 57 47 44 49 48 44 40 34 35 35 35 35 38 39 35 37
19 196 197 7 31 133 141 151 141 154 146 138 123 94 112 127 134 131 118 100 80 72 68 63 62 67 68 66 73 75 70 63 56 52 51 43 38 36 32 42 33 32 32 35 32 28 29 15 19
60 103 99 68 63 98 122 108 152 184 188 190 176 153 144 146 149 146 137 119 95 75 66 61 52 56 69 68 59 56 57 54 51 46 40 36 37 33 24 30 29 27 25 28 24 18 13 13 6
94 76 66 60 40 57 119 144 149 227 267 252 173 163 162 165 166 167 157 139 119 92 61 70 65 55 55 68 66 56 50 47 44 36 27 28 27 22 18 14 10 12 11 7 6 8 11 8 8
95 93 66 60 52 52 87 153 216 252 277 172 160 166 171 172 167 171 167 153 138 115 72 61 66 60 52 63 62 62 54 45 44 36 24 19 17 13 12 8 6 5 1 359 357 1 4 3 0
103 102 76 41 42 39 66 279 227 224 197 170 171 176 177 176 174 172 177 167 158 147 118 69 69 65 54 47 61 51 50 45 33 31 24 17 9 4 358 0 359 359 355 354 348 350 350 356 357
113 98 66 11 347 359 304 277 236 205 194 188 187 181 182 184 185 190 192 187 177 164 155 116 78 57 55 39 49 49 38 24 27 19 15 12 6 356 349 350 353 351 348 348 350 352 342 346 355
130 140 142 13 340 312 259 252 236 204 205 204 201 193 193 192 194 197 195 192 178 167 154 129 95 67 45 33 8 61 43 31 20 12 8 10 7 357 344 341 343 340 336 340 344 346 343 339 338
135 167 247 289 343 303 251 258 250 236 230 222 209 204 204 203 205 207 195 192 188 180 165 153 132 105 63 40 12 43 53 36 18 11 8 1 357 352 345 337 340 338 335 339 342 348 338 334 331
162 186 243 271 335 295 263 266 265 245 240 229 213 209 211 214 214 208 200 195 188 191 175 181 145 85 68 77 29 29 57 34 19 12 12 1 353 347 340 330 340 339 334 338 338 341 339 325 323
148 164 244 281 316 298 269 271 272 254 242 234 220 213 217 223 217 209 206 199 196 207 196 196 204 158 122 101 262 318 323 345 13 7 4 358 353 348 337 331 329 329 325 324 325 330 328 330 327
134 160 269 303 331 302 278 274 267 248 238 238 234 223 220 219 216 212 213 209 206 214 223 226 225 215 211 269 271 281 279 262 325 356 351 352 344 338 331 335 332 324 314 313 319 322 310 317 324
6 233 249 301 321 284 284 267 247 250 242 248 244 236 225 218 221 220 218 219 211 213 228 242 238 228 236 271 255 340 267 243 283 324 331 336 328 327 330 323 322 315 304 294 299 293 289 290 292
326 274 245 279 298 305 308 280 260 268 260 254 244 228 223 219 226 228 226 225 227 225 220 236 248 237 224 212 220 233 279 274 295 309 316 322 319 317 319 317 313 310 305 300 294 292 291 279 277
6 298 265 252 259 278 280 259 280 304 270 267 254 229 225 221 224 230 230 228 235 232 226 224 226 242 234 208 218 234 263 271 266 290 299 313 326 325 320 316 304 303 303 300 294 292 289 286 283
272 271 236 207 228 264 282 261 274 238 260 275 267 252 242 231 227 234 237 229 230 231 229 217 206 234 244 217 213 222 254 274 269 276 282 300 314 318 325 320 311 306 301 299 294 288 284 282 281
331 307 322 303 284 275 337 262 259 288 281 284 293 309 313 279 248 248 252 248 248 242 241 230 215 233 241 224 219 221 241 256 250 265 277 292 301 309 317 319 311 307 304 297 293 288 284 279 275
338 320 339 296 288 305 264 255 274 312 303 300 300 307 309 302 275 258 258 256 255 250 245 239 237 249 253 239 231 223 247 256 252 262 269 273 283 291 309 310 310 308 300 296 292 288 286 282 278
321 65 353 328 313 277 266 278 288 281 293 296 295 297 295 295 287 275 268 258 250 248 246 245 243 249 247 242 238 228 242 255 252 259 262 267 282 292 304 307 310 305 305 303 299 291 290 287 284
340 152 194 210 282 283 285 272 278 296 292 307 306 300 302 294 283 282 273 255 245 243 243 243 241 243 246 241 235 226 234 247 247 247 261 272 280 288 299 306 303 305 306 303 296 296 295 293 297
140 151 190 177 273 271 285 280 257 252 256 273 290 297 299 296 291 294 290 270 250 239 235 234 236 234 234 235 233 223 231 239 247 247 255 266 274 282 287 290 294 298 300 300 294 294 297 297 304
254 233 207 238 240 249 269 277 304 263 280 287 291 294 297 302 305 302 294 276 240 230 231 234 235 230 228 224 213 216 229 226 236 252 267 276 279 282 281 283 286 292 293 292 289 291 295 296 300